Hourly Data Report for October 09, 2015

All times are specified in Local Standard Time (LST). Add 1 hour to adjust for Daylight Saving Time where and when it is observed.

RESOLUTE BAY A
NUNAVUT

74°43'01.000" N
94°58'10.000" W
67.70 m
2403498
71924
YRB

Download Data

Hourly Data (October 2015)
Hourly Data Report for October 9, 2015
Temp Definition
°C
Dew Point Temp Definition
°C
Rel Hum Definition
%
Wind Dir Definition
10's deg

Wind Spd Definition
km/h
Visibility Definition
km
Stn Press Definition
kPa
Hmdx Definition


Wind Chill Definition


Weather Definition


TIME
00:00 Legend Double Dagger -11.4 -12.7 90 4 25 24.1 99.90   -21 Clear
01:00 Legend Double Dagger -11.4 -12.7 90 4 23 24.1 99.92   -20 LegendNANA
02:00 Legend Double Dagger -13.5 -15.1 88 5 27 24.1 99.95   -24 Blowing Snow
03:00 Legend Double Dagger -12.8 -14.1 90 4 28 24.1 99.94   -23 Clear
04:00 Legend Double Dagger -13.1 -14.4 90 5 32 24.1 99.97   -24 LegendNANA
05:00 Legend Double Dagger -14.0 -15.6 88 1 13 24.1 99.95   -21 LegendNANA
06:00 Legend Double Dagger -14.0 -15.6 88 3 34 24.1 99.95   -25 Mainly Clear
07:00 Legend Double Dagger -14.1 -15.7 88 3 32 16.1 99.93   -25 LegendNANA
08:00 Legend Double Dagger -11.2 -12.5 90 2 30 16.1 99.92   -21 LegendNANA
09:00 Legend Double Dagger LegendMM LegendMM LegendMM 0 LegendMM 16.1 LegendMM     Mostly Cloudy
10:00 Legend Double Dagger -10.2 -11.1 93 5 28 16.1 99.89   -19 LegendNANA
11:00 Legend Double Dagger -9.8 -9.9 99 5 28 16.1 99.86   -19 LegendNANA
12:00 Legend Double Dagger -8.4 -8.8 97 5 28 24.1 99.86   -17 Cloudy
13:00 Legend Double Dagger -7.8 -8.5 95 5 28 24.1 99.86   -16 LegendNANA
14:00 Legend Double Dagger -7.9 -7.9 100 36 28 6.4 99.85   -17 Snow
15:00 Legend Double Dagger -8.0 -9.1 92 34 28 4.8 99.83   -17 Snow
16:00 Legend Double Dagger -7.9 -9.0 92 35 26 4.8 99.81   -16 Snow
17:00 Legend Double Dagger -7.6 -8.8 91 35 28 4.8 99.80   -16 Snow
18:00 Legend Double Dagger -8.2 -9.6 90 1 41 6.4 99.77   -18 Snow
19:00 Legend Double Dagger -7.6 -9.1 89 2 36 6.4 99.76   -17 Snow
20:00 Legend Double Dagger -7.7 -9.2 89 3 32 9.7 99.74   -17 Blowing Snow
21:00 Legend Double Dagger -7.3 -8.7 90 3 32 16.1 99.71   -16 Blowing Snow
22:00 Legend Double Dagger -7.6 -9.1 89 4 29 16.1 99.70   -16 Blowing Snow
23:00 Legend Double Dagger -6.8 -8.0 91 4 28 9.7 99.68   -15 Snow,Blowing Snow

Notes on Data Quality.

Legend

  • E = Estimated
  • M = Missing
  • NA = Not Available
  • ‡ = Partner data that is not subject to review by the National Climate Archives
Date modified: